This is the latest recevied weather packets stored in our database for station/object KBTL-WX. If no packets are shown the sender has not sent any weather packets the latest 10 day(s).
| Time | Temp. | Humidity | Pressure | Rain* | Wind** | Luminosity | Snow |
|---|---|---|---|---|---|---|---|
| 1777504512 | 8.33° C | 91% | 979.9 hPa | 1.52 mm | - | - | - |
| 1777503634 | 8.33° C | 91% | 979.9 hPa | 1.52 mm | - | - | - |
| 1777502713 | 8.33° C | 91% | 979.3 hPa | 1.02 mm | - | - | - |
| 1777501825 | 8.33° C | 91% | 979.9 hPa | 1.02 mm | - | - | - |
| 1777500913 | 8.89° C | 91% | 979.9 hPa | 1.02 mm | - | - | - |
| 1777500036 | 9.44° C | 91% | 979.9 hPa | 1.02 mm | - | - | - |
| 1777499112 | 8.89° C | 91% | 979.2 hPa | 1.52 mm | - | - | - |
| 1777498229 | 9.44° C | 91% | 978.9 hPa | 1.52 mm | - | - | - |
| 1777497312 | 8.89° C | 91% | 979 hPa | 1.02 mm | - | - | - |
| 1777496434 | 9.44° C | 91% | 979 hPa | 1.02 mm | - | - | - |
| 1777495513 | 10° C | 87% | 979.6 hPa | 0.76 mm | - | - | - |
| 1777494629 | 9.44° C | 87% | 978.6 hPa | 0 mm | - | - | - |
| 1777493713 | 10° C | 87% | 978.6 hPa | 0 mm | - | - | - |
| 1777492834 | 10° C | 88% | 977.9 hPa | 0 mm | - | - | - |
| 1777491914 | 10° C | 93% | 978.1 hPa | 2.29 mm | - | - | - |
| 1777491029 | 10° C | 93% | 978.1 hPa | 2.29 mm | - | - | - |
| 1777490113 | 10° C | 93% | 978.1 hPa | 2.54 mm | - | - | - |
| 1777489234 | 10° C | 93% | 978.1 hPa | 2.54 mm | - | - | - |
| 1777488313 | 9.44° C | 88% | 978.7 hPa | 0.25 mm | - | - | - |
| 1777487432 | 10° C | 90% | 977.8 hPa | 0.25 mm | - | - | - |
| 1777486513 | 10° C | 90% | 977.8 hPa | 1.27 mm | - | - | - |
| 1777485633 | 10° C | 90% | 977.8 hPa | 1.27 mm | - | - | - |
| 1777484713 | 10° C | 82% | 979 hPa | 0 mm | - | - | - |
| 1777483826 | 10° C | 79% | 978.6 hPa | 0 mm | - | - | - |
| 1777482913 | 10.56° C | 79% | 978.6 hPa | 0 mm | - | - | - |
* Rain latest hour (hover to see other rain measurements)
** Current wind speed in m/s (hover to see current wind gust speed)